Weather Roundup
Issued by NWS

Home | Current Version | Previous Version | Graphics & Text | Print | Product List | Glossary Off
Versions: 1 2 3 4 5 6 7 8 9 10 11 12 13 14 15 16 17 18 19 20 21 22 23 24 25 26 27 28 29 30 31 32 33 34 35 36 37 38 39 40 41 42 43 44 45 46 47 48 49 50

000
NZUS93 KARX 251959
HRRWXR

CURRENT HOURLY OBSERVATIONS ACROSS
MUCH OF THE UPPER MISSISSIPPI VALLEY
NATIONAL WEATHER SERVICE LA CROSSE WI
200 PM CST SUN JAN 25 2015


...SOUTHEAST MINNESOTA...


CITY           SKY/WX    TMP DP  RH WIND       PRES   REMARKS
ROCHESTER      CLOUDY    26  19  74 N8        29.97R WCI  18
ROCHESTER/MAYO CLOUDY    26  16  65 NW5       29.98R WCI  21
WINONA         SUNNY     30  18  59 NE7       30.00S WCI  23
AUSTIN         CLOUDY    27  21  80 N7        29.97R WCI  19
ALBERT LEA     CLOUDY    27  25  93 NE8       29.98S WCI  18
DODGE CENTER   CLOUDY    25  19  80 N8        29.98R WCI  16
PRESTON        PTSUNNY   26  19  75 N8        29.95S WCI  18
OWATONNA       CLOUDY    25  18  74 N8        29.99S WCI  16
FARIBAULT      CLOUDY    23  16  74 N6        30.01S WCI  16
$$

...ELSEWHERE IN MINNESOTA...


CITY           SKY/WX    TMP DP  RH WIND       PRES   REMARKS
MINNEAPOLIS    SUNNY     26  13  57 NE8       30.03S WCI  18
INTNL FALLS    CLOUDY    14   4  64 VRB3      30.00F
DULUTH         FLURRIES  19  13  77 E14       30.01S WCI   6
RED WING       CLOUDY    25  14  63 NE6       30.02S WCI  18
REDWOOD FALLS  CLOUDY    30  22  72 N6        30.02S WCI  24
MANKATO        CLOUDY    25  18  74 N6        30.00F WCI  18
WORTHINGTON    CLOUDY    28  25  86 N8        30.00S WCI  20
FAIRMONT       CLOUDY    28  21  74 N8        29.99S WCI  20
$$

...SOUTHWEST WISCONSIN...


CITY           SKY/WX    TMP DP  RH WIND       PRES   REMARKS
LA CROSSE      MOSUNNY   30  16  56 E8        29.98F WCI  22
PRAIRIE DU CHI SUNNY     29  17  59 NE15      29.95F WCI  18
BOSCOBEL       MOSUNNY   27  14  58 NE9G18    29.97F WCI  18
LONE ROCK      NOT AVBL
PLATTEVILLE    CLOUDY    25  19  80 N22       29.91S WCI  10
FORT MC COY    PTSUNNY   26  14  60 NE9       30.00F WCI  17
VIROQUA        CLOUDY    25  17  71 NE9       29.94F WCI  16
WIS DELLS      NOT AVBL
$$

...ELSEWHERE IN WISCONSIN...


CITY           SKY/WX    TMP DP  RH WIND       PRES   REMARKS
MILWAUKEE      PTSUNNY   26  14  60 NE21G26   29.92R WCI  12
MADISON        PTSUNNY   25  15  66 NE18      29.94S WCI  11
GREEN BAY      SUNNY     21  11  65 NE20      30.02F WCI   6
EAU CLAIRE     MOSUNNY   24  11  57 NE7       30.02R WCI  16
BLACK RVR FLS  MOCLDY    26  13  56 E3        29.99F
MEDFORD        PTSUNNY   21   7  56 E5        29.98F WCI  14
WAUSAU         SUNNY     20   7  57 NE9       29.98S WCI   9
WIS RAPIDS     SUNNY     21   7  54 E9        30.01S WCI  11
MARSHFIELD     MOSUNNY   21   9  59 E8        29.99S WCI  11
RICE LAKE      CLOUDY    22  10  59 CALM      30.03S
$$

...NORTHEAST IOWA...


CITY           SKY/WX    TMP DP  RH WIND       PRES   REMARKS
DECORAH        MOSUNNY   28  19  69 NE12      29.93F WCI  18
MASON CITY     CLOUDY    29  26  89 N10       29.98R WCI  20
CHARLES CITY   CLOUDY    30  28  93 NE10      29.94F WCI  21
OELWEIN        CLOUDY    28  21  74 NE16      29.92S WCI  17
$$

...ELSEWHERE IN IOWA...


CITY           SKY/WX    TMP DP  RH WIND       PRES   REMARKS
DES MOINES     PTSUNNY   35  28  75 N14G22    29.93R WCI  26
IOWA CITY      CLOUDY    29  23  78 N21G28    29.90R WCI  16
FORT DODGE     CLOUDY    32  27  80 N12       29.99R WCI  23
$$

...NORTHERN ILLINOIS...


CITY           SKY/WX    TMP DP  RH WIND       PRES   REMARKS
CHICAGO-OHARE  LGT SNOW  28  23  81 NE20G29   29.83R WCI  15
CHICAGO-MIDWAY LGT SNOW  31  27  85 NE21G29   29.81R FOG     WCI  18
MOLINE         CLOUDY    30  24  78 NE14G23   29.84R WCI  19
ROCKFORD       CLOUDY    28  16  60 NE22      29.89R WCI  14
PEORIA         LGT SNOW  35  31  85 N16G23    29.73R FOG     WCI  25
$$

NOTE: "FAIR" INDICATES FEW OR NO CLOUDS BELOW 12,000 FEET WITH NO
SIGNIFICANT WEATHER AND/OR OBSTRUCTIONS TO VISIBILITY. WIND
SPEEDS ARE IN MILES-PER-HOUR.



USA.gov is the U.S. government's official web portal to all federal, state and local government web resources and services.